Wetbulb
49.08 49.06 50.30 50.62 49.90 47.38 44.79 38.71 29.43 42.14 45.71 35.47 37.21 34.60 36.07 37.09 36.49 37.67 36.13 37.27 35.60 35.07 34.56 32.93 32.86 32.23 34.77 38.21 37.65 32.62 35.58 32.27 27.80 29.27 34.57 35.92 34.57 31.87 30.45 26.16 23.74 27.55 26.02 26.79
48.93 48.77 49.39 50.14 47.89 47.57 42.28 33.24 33.19 41.75 42.41 31.47 33.22 36.25 34.91 35.98 35.08 35.93 35.04 33.78 35.74 36.41 34.24 30.24 33.65 33.78 36.98 37.53 36.15 34.04 35.19 30.28 24.56 26.40 31.34 33.81 31.73 33.38 33.01 31.22 29.47 25.00 22.82 27.28
48.66 49.11 49.18 49.77 47.52 48.25 43.05 35.34 30.51 33.06 37.46 38.36 36.84 33.59 33.67 32.21 35.74 35.05 35.86 34.96 36.24 34.71 32.65 34.81 31.81 31.69 34.28 36.13 36.05 35.95 37.05 31.67 28.69 26.39 27.96 32.16 28.52 30.70 32.36 31.08 25.96 27.30 28.21 30.07
47.90 48.38 49.34 49.47 47.93 47.65 42.58 34.51 34.03 37.12 29.13 32.15 36.48 36.83 34.67 30.30 28.60 34.68 36.24 32.75 34.68 33.81 30.04 31.38 30.82 33.08 33.03 35.17 36.34 36.48 35.39 28.09 30.17 30.68 31.23 31.35 30.50 30.19 31.36 29.49 30.44 25.97 29.59 29.77
47.96 48.12 48.70 47.58 47.99 47.11 39.30 32.44 35.21 37.43 34.49 36.73 34.56 35.51 32.35 31.71 32.63 33.75 32.29 32.52 34.54 35.01 31.69 32.91 30.00 32.65 32.78 31.91 35.96 35.18 35.82 29.23 29.02 27.14 30.84 30.79 28.71 31.32 31.60 31.20 31.45 31.26 31.52 30.92
47.07 47.86 48.47 47.29 47.99 47.37 39.40 39.78 42.05 37.26 34.85 34.32 32.67 33.80 34.13 33.96 35.45 34.29 37.18 36.55 34.38 32.99 34.39 37.31 38.33 38.24 37.62 36.94 34.47 33.46 33.23 31.43 28.61 24.53 29.91 29.44 25.53 29.96 30.40 30.33 30.83 29.89 26.45 31.68
47.41 47.33 48.31 46.90 47.31 47.54 45.01 42.43 40.79 34.96 31.27 33.91 33.92 34.93 35.61 34.09 34.33 33.57 35.92 36.99 35.38 35.57 40.01 39.15 38.56 37.51 36.91 36.69 36.11 37.05 32.36 31.09 30.33 26.64 27.82 19.07 29.58 34.51 32.65 29.99 31.63 31.24 30.54 31.92
46.92 47.52 48.10 47.01 47.21 46.45 43.77 43.90 42.62 39.25 33.18 35.40 35.80 35.22 35.37 36.17 36.52 35.73 35.91 36.13 38.89 40.11 38.31 32.45 29.74 30.10 30.88 32.21 34.14 34.83 35.79 32.45 28.18 24.86 24.80 27.48 28.20 30.92 30.21 27.52 28.07 31.81 30.91 32.93
47.48 47.69 47.67 47.11 46.45 45.33 43.99 43.55 45.48 42.92 37.87 34.84 37.62 34.90 36.83 34.08 33.90 32.93 33.38 38.77 40.87 39.55 34.88 31.75 24.91 22.74 27.44 26.32 28.88 34.64 33.95 34.19 30.46 26.75 17.38 18.01 29.93 32.15 34.64 33.63 26.05 32.43 33.06 32.21
48.15 47.53 46.87 46.32 45.51 45.43 45.11 43.29 45.77 44.01 38.09 39.17 39.69 36.10 36.52 39.07 36.74 33.23 32.81 34.16 35.47 38.00 33.23 29.48 26.91 26.22 31.80 25.42 24.67 25.26 27.98 28.84 26.37 26.45 24.47 26.18 33.15 33.77 35.52 23.78 26.36 32.98 33.45 32.80
46.73 46.59 46.11 46.02 45.43 44.72 46.05 41.91 43.92 44.30 38.76 37.78 40.57 40.23 37.33 37.94 36.89 31.89 35.15 33.53 33.78 33.46 30.61 30.21 29.40 28.58 30.29 28.82 30.27 27.26 26.90 26.47 26.03 26.35 23.01 20.42 34.97 33.48 28.68 32.44 34.22 33.67 31.61 32.62
46.00 45.78 45.74 45.72 45.16 43.58 45.14 39.97 43.34 45.94 40.38 35.66 40.87 39.85 40.53 42.32 42.35 38.90 37.44 34.82 34.83 36.96 33.97 33.42 33.68 30.23 31.39 30.35 25.41 31.44 27.20 31.47 30.93 29.88 30.31 35.20 36.18 34.86 35.32 34.43 32.83 32.87 33.28 32.84
45.60 45.53 45.67 45.90 45.27 43.99 45.00 42.51 44.92 42.85 38.84 38.55 39.30 37.05 41.00 43.05 43.28 44.51 34.90 37.14 37.08 36.04 39.11 36.73 35.77 29.35 34.18 27.60 29.17 30.49 32.20 34.26 31.88 29.97 32.55 34.40 34.92 34.55 35.20 35.78 34.20 34.51 34.30 32.75
44.96 44.91 45.42 45.65 45.50 44.65 44.74 43.12 42.86 43.71 40.62 34.52 34.08 41.60 38.27 41.87 43.15 42.76 43.79 39.72 39.52 38.81 39.42 35.29 34.08 31.74 34.73 31.64 32.07 32.74 34.70 34.48 31.34 29.53 33.08 33.97 34.11 35.45 35.58 34.72 35.24 33.67 33.06 31.23
45.21 45.31 45.40 44.91 44.18 43.43 43.56 42.78 41.85 43.47 40.26 32.66 32.72 39.28 39.80 41.69 42.53 41.38 41.93 40.53 39.07 37.61 35.97 34.83 32.59 35.39 34.10 34.79 34.17 31.34 34.95 32.96 30.86 31.72 35.56 34.47 34.54 35.58 36.52 34.66 32.95 31.99 30.29 29.27
44.97 45.15 44.69 44.16 43.92 42.76 44.78 41.01 43.18 43.67 45.30 39.27 30.64 37.60 37.26 39.58 40.79 39.70 39.33 39.95 38.85 38.61 36.63 34.86 35.87 35.59 35.52 30.22 29.47 32.63 35.52 36.64 37.13 36.30 37.20 36.93 36.00 35.39 34.80 32.46 30.91 29.71 28.77 28.01
44.25 44.03 43.61 43.21 43.50 42.59 40.24 38.32 41.39 41.57 45.90 38.45 31.40 30.72 36.97 38.27 38.96 38.58 38.50 40.05 38.25 38.26 36.59 35.93 35.61 34.82 35.97 33.06 28.44 33.38 36.31 37.43 37.69 38.50 36.33 32.69 33.61 31.82 31.49 30.42 29.19 27.95 27.67 27.18
43.49 43.32 43.16 43.09 43.11 42.91 38.85 40.15 40.88 42.89 40.49 39.09 30.92 28.65 32.38 37.88 34.53 33.63 39.17 36.37 38.59 37.41 36.67 37.03 35.38 34.97 36.11 29.04 32.19 34.76 36.85 36.25 36.17 35.92 35.79 35.31 33.23 31.26 28.93 28.93 28.11 26.27 25.31 24.69
42.93 42.89 43.33 42.53 40.05 39.14 38.67 39.98 39.70 43.31 41.27 33.49 33.46 28.81 26.57 37.60 34.17 36.87 37.85 38.88 33.11 37.54 34.85 35.02 35.27 32.66 29.16 31.40 32.39 34.20 35.12 34.86 32.62 33.12 32.86 31.87 30.19 28.37 27.16 26.72 25.77 24.64 23.56 23.41
42.00 42.21 38.17 32.17 37.95 40.52 38.54 40.08 37.90 36.69 37.85 38.19 32.13 35.82 29.64 35.27 33.05 32.82 34.56 36.93 32.59 29.33 32.36 35.75 32.29 32.73 33.05 33.31 35.59 36.79 35.47 34.49 33.75 30.60 28.35 28.23 27.62 26.86 25.41 24.18 23.89 23.18 22.65 22.24
40.43 34.80 33.22 39.90 40.01 39.91 36.22 32.11 32.33 32.45 31.36 35.29 33.84 33.96 30.61 37.16 32.14 29.85 35.07 31.21 32.05 26.82 29.25 29.39 29.15 29.40 30.76 32.92 31.59 32.93 32.31 31.53 31.69 31.86 30.61 30.47 29.45 26.88 25.13 23.66 22.78 22.82 21.67 20.33
39.24 39.47 40.12 39.12 35.46 32.27 29.08 25.96 29.37 29.46 27.72 32.95 32.26 33.39 35.15 35.10 39.35 33.46 32.85 28.57 30.86 23.62 32.55 28.83 26.59 31.20 30.34 30.41 28.44 29.96 30.27 29.50 28.03 28.44 27.52 26.93 26.01 25.81 25.06 24.22 23.03 21.46 20.63 18.41
39.81 36.20 32.07 32.63 28.44 24.80 25.15 20.46 25.21 26.86 30.65 32.47 32.89 31.98 35.44 34.89 36.95 30.89 32.11 27.07 26.89 32.68 27.39 27.38 31.05 31.67 30.06 30.22 29.91 28.94 29.17 28.25 27.34 26.32 26.15 25.44 24.32 24.23 23.78 21.83 21.41 19.77 19.32 17.91
32.80 31.68 22.30 25.66 24.10 26.17 27.41 29.17 30.34 32.08 33.81 34.29 35.04 32.67 33.89 33.93 30.69 31.11 26.73 28.53 30.47 24.64 23.30 25.25 32.28 31.73 29.94 29.74 29.76 28.07 27.06 25.64 25.05 24.95 23.99 22.62 21.60 19.99 18.45 17.29 17.86 18.09 18.08 16.38
30.30 29.80 22.48 24.40 26.94 29.26 30.10 31.55 32.56 35.17 37.28 35.99 34.00 33.69 34.81 30.79 28.45 29.69 27.39 24.77 23.23 25.83 26.43 32.51 33.79 32.41 30.25 29.37 28.46 28.12 26.16 23.61 23.39 23.11 21.21 19.71 19.20 19.00 18.00 17.40 18.36 18.14 16.66 16.76
30.80 29.42 26.11 28.97 29.01 28.12 29.96 31.60 31.49 35.46 36.02 36.93 36.12 30.80 29.48 27.32 28.75 26.47 23.25 24.22 23.04 28.22 32.81 34.01 33.14 30.52 30.03 29.21 28.04 27.17 26.80 25.43 23.72 22.42 21.48 20.07 18.55 18.66 19.02 17.79 17.27 15.59 15.89 16.49
30.07 28.31 30.93 31.57 29.72 28.65 30.30 33.10 31.70 35.68 37.07 30.87 32.33 26.73 24.83 29.84 26.71 24.94 29.51 27.70 31.16 32.75 31.67 32.90 31.99 29.91 29.42 28.55 27.80 25.34 24.91 23.73 22.94 21.71 22.00 21.35 20.36 18.16 19.23 18.55 18.88 18.92 18.14 16.22
MSLP
1007.75 1008.11 1008.56 1009.30 1010.08 1010.86 1011.99 1013.93 1015.60 1016.01 1015.93 1016.36 1015.50 1013.79 1013.19 1012.61 1012.22 1012.72 1012.31 1011.70 1011.74 1011.80 1012.63 1013.47 1014.35 1015.25 1015.64 1016.76 1016.99 1017.08 1017.68 1017.47 1017.15 1017.47 1017.98 1018.25 1018.20 1018.54 1019.14 1018.76 1018.69 1018.17 1017.35 1015.88
1006.64 1007.15 1008.02 1008.45 1009.36 1009.71 1011.87 1014.02 1016.06 1016.26 1016.30 1014.67 1013.65 1013.31 1012.98 1012.38 1012.32 1012.47 1012.80 1012.39 1012.24 1012.92 1012.95 1013.92 1014.96 1015.88 1016.77 1017.36 1017.57 1017.57 1018.11 1017.63 1017.52 1017.89 1018.35 1018.58 1018.48 1018.89 1019.39 1019.60 1019.69 1018.33 1017.45 1015.89
1005.58 1006.24 1006.95 1007.70 1008.59 1009.13 1010.89 1012.92 1014.95 1016.50 1015.64 1014.06 1012.39 1012.47 1012.57 1012.45 1012.89 1013.11 1013.09 1012.90 1013.18 1013.31 1013.97 1014.31 1015.24 1016.32 1017.42 1018.05 1018.08 1018.52 1018.36 1017.56 1016.96 1016.47 1016.71 1017.46 1018.21 1018.65 1019.02 1019.08 1018.79 1017.47 1016.67 1016.27
1004.38 1005.26 1005.99 1006.76 1007.97 1008.60 1009.32 1012.33 1012.61 1012.17 1013.92 1013.63 1012.28 1012.49 1012.22 1012.34 1013.21 1013.48 1013.33 1013.48 1013.28 1013.15 1013.86 1014.56 1015.35 1016.38 1017.44 1018.20 1018.43 1018.53 1018.38 1017.92 1017.79 1017.70 1017.84 1018.10 1018.07 1018.30 1018.52 1018.68 1018.53 1018.21 1017.39 1017.31
1003.22 1004.18 1005.19 1006.17 1007.24 1008.15 1009.12 1010.69 1011.10 1011.73 1011.47 1012.30 1012.09 1011.93 1011.60 1011.90 1012.61 1012.79 1013.46 1013.35 1013.52 1013.70 1013.66 1013.95 1014.82 1015.78 1016.68 1017.10 1018.23 1018.39 1018.73 1018.52 1018.66 1018.19 1018.01 1018.01 1017.87 1018.08 1018.46 1018.73 1018.74 1018.55 1018.29 1018.04
1001.91 1003.09 1004.26 1005.65 1006.12 1006.92 1008.12 1009.72 1009.70 1009.51 1010.75 1010.88 1010.96 1010.13 1010.51 1011.06 1011.99 1013.11 1012.87 1013.03 1013.76 1014.45 1014.55 1014.64 1015.04 1015.93 1016.46 1016.74 1017.47 1018.36 1018.76 1018.54 1018.46 1017.58 1018.00 1017.85 1017.77 1017.91 1018.54 1018.92 1019.58 1020.02 1019.52 1019.40
1000.42 1001.73 1002.95 1004.50 1005.29 1005.64 1006.97 1008.06 1007.97 1009.74 1010.43 1009.96 1009.06 1009.36 1010.21 1011.04 1011.77 1012.40 1012.97 1013.68 1013.63 1015.55 1015.54 1015.85 1016.42 1016.76 1017.06 1017.54 1018.38 1018.91 1018.68 1018.64 1018.57 1017.91 1018.01 1017.60 1018.15 1018.77 1019.27 1019.55 1019.82 1020.34 1020.56 1020.55
998.46 1000.03 1001.61 1003.37 1004.73 1005.90 1006.59 1006.89 1007.18 1008.42 1008.39 1008.88 1009.06 1009.20 1009.82 1011.13 1012.30 1012.30 1013.21 1014.16 1014.24 1015.33 1015.26 1015.87 1016.42 1017.31 1017.74 1018.19 1018.81 1018.90 1018.79 1018.69 1018.38 1018.09 1017.56 1017.74 1018.70 1019.21 1019.60 1019.81 1020.13 1020.95 1021.11 1020.96
996.24 998.57 1000.79 1002.95 1004.59 1005.76 1006.24 1006.69 1007.01 1007.00 1007.10 1007.70 1008.16 1008.71 1009.66 1010.55 1011.65 1013.25 1014.43 1015.11 1015.51 1015.54 1015.41 1015.46 1015.41 1016.14 1016.38 1017.78 1018.90 1019.19 1019.33 1019.35 1018.76 1018.39 1017.97 1017.61 1018.08 1019.65 1020.17 1020.60 1020.47 1021.44 1021.63 1021.70
995.55 998.15 1000.70 1002.85 1004.44 1005.27 1005.29 1007.06 1006.99 1005.90 1007.00 1007.74 1008.13 1008.64 1009.25 1009.96 1010.92 1012.51 1014.26 1015.22 1015.66 1015.76 1015.31 1015.43 1015.61 1015.74 1016.22 1016.90 1017.79 1019.02 1019.31 1019.28 1018.82 1018.36 1018.52 1018.44 1019.00 1019.87 1020.33 1020.78 1021.67 1021.71 1022.17 1022.40
996.25 998.75 1001.00 1002.86 1004.02 1004.59 1005.34 1006.19 1006.03 1005.86 1007.59 1009.53 1009.54 1009.69 1010.13 1010.46 1010.91 1011.74 1013.69 1014.77 1015.44 1015.66 1015.42 1015.51 1015.50 1015.60 1016.05 1016.47 1017.32 1018.45 1018.60 1018.54 1018.63 1019.00 1019.13 1019.05 1019.60 1020.26 1020.58 1021.15 1021.52 1022.19 1022.64 1022.88
997.55 999.52 1001.36 1002.62 1003.70 1004.13 1004.51 1005.97 1006.75 1006.50 1007.52 1010.59 1010.99 1011.35 1011.42 1010.94 1010.75 1011.42 1013.21 1013.44 1014.22 1014.95 1015.13 1015.65 1015.71 1015.77 1016.16 1016.15 1016.76 1018.27 1018.46 1018.52 1018.44 1018.82 1018.92 1019.61 1020.07 1020.53 1021.40 1021.81 1022.04 1022.43 1022.77 1023.13
998.77 1000.28 1001.78 1003.34 1003.92 1004.75 1004.88 1005.61 1005.94 1006.53 1008.96 1010.44 1011.00 1012.06 1012.42 1012.15 1012.24 1012.06 1012.50 1014.21 1014.77 1014.93 1015.23 1015.46 1015.61 1015.61 1015.84 1015.94 1016.20 1017.09 1018.08 1018.54 1018.84 1019.18 1019.43 1019.59 1020.46 1021.17 1021.64 1021.97 1022.30 1022.67 1023.07 1023.37
999.89 1001.40 1002.49 1003.56 1004.45 1004.53 1004.54 1005.51 1006.72 1006.54 1008.25 1010.43 1013.15 1012.91 1012.84 1013.10 1012.66 1012.71 1012.74 1013.69 1014.89 1015.22 1015.16 1015.30 1015.57 1015.64 1016.30 1015.84 1016.01 1016.33 1017.38 1018.08 1018.47 1019.08 1019.53 1020.03 1020.71 1021.08 1021.54 1022.07 1022.56 1022.92 1023.40 1023.85
1001.38 1002.40 1003.24 1003.83 1004.34 1004.90 1005.42 1006.32 1007.35 1007.06 1007.13 1010.43 1012.73 1012.97 1014.19 1013.92 1013.43 1013.33 1013.64 1013.95 1014.44 1014.74 1015.16 1015.60 1015.86 1016.21 1016.30 1016.42 1016.59 1016.45 1017.02 1017.24 1017.92 1017.90 1018.94 1019.67 1020.46 1021.42 1021.73 1022.27 1022.78 1023.34 1023.76 1024.07
1002.16 1002.87 1003.58 1004.20 1004.71 1004.98 1004.79 1006.81 1007.99 1007.89 1007.47 1009.64 1012.68 1015.02 1015.06 1014.72 1014.34 1014.23 1014.53 1014.79 1014.99 1015.10 1015.35 1015.98 1016.48 1016.98 1016.65 1016.55 1016.15 1016.44 1016.91 1017.52 1017.99 1018.29 1019.28 1019.87 1020.98 1021.66 1022.15 1022.80 1023.51 1024.13 1024.43 1024.76
1002.99 1003.70 1004.38 1004.85 1005.10 1005.58 1006.71 1008.28 1008.63 1008.75 1008.32 1010.36 1012.94 1014.55 1015.36 1015.26 1014.90 1015.40 1015.38 1015.49 1015.76 1015.73 1016.38 1016.45 1016.45 1016.95 1017.25 1017.02 1016.43 1016.82 1017.27 1017.73 1018.40 1019.05 1019.83 1020.67 1021.27 1021.92 1023.03 1023.63 1024.23 1024.81 1025.14 1025.45
1003.60 1004.25 1004.78 1005.26 1005.71 1006.62 1007.89 1009.07 1009.00 1008.81 1008.91 1010.38 1012.82 1014.85 1015.34 1015.71 1015.41 1015.74 1016.29 1015.97 1016.26 1016.77 1016.63 1017.04 1016.91 1017.59 1017.56 1017.09 1017.00 1017.53 1017.93 1018.58 1019.11 1019.75 1020.29 1020.56 1021.88 1022.87 1023.60 1024.15 1024.54 1024.92 1025.38 1025.89
1004.33 1004.69 1004.96 1005.42 1006.93 1008.29 1009.33 1009.60 1009.48 1009.26 1009.63 1010.90 1012.42 1013.40 1014.79 1015.87 1016.32 1016.49 1016.63 1016.67 1016.74 1017.45 1016.99 1017.10 1017.40 1017.23 1017.36 1017.45 1017.49 1017.96 1018.59 1018.94 1019.79 1020.58 1021.15 1021.79 1022.43 1023.29 1024.05 1024.59 1025.01 1025.43 1025.96 1026.40
1004.71 1005.04 1006.42 1008.54 1009.48 1009.79 1009.66 1009.84 1009.71 1010.16 1010.81 1011.39 1012.56 1013.19 1014.34 1015.15 1016.07 1016.58 1016.72 1016.85 1016.99 1017.06 1017.42 1017.68 1017.50 1017.17 1018.06 1018.54 1018.43 1018.55 1019.40 1019.97 1020.53 1021.04 1021.76 1022.40 1022.98 1023.77 1024.55 1025.25 1025.85 1026.35 1026.78 1027.13
1005.84 1007.32 1008.65 1009.50 1009.89 1009.40 1009.78 1010.52 1010.76 1011.25 1011.79 1012.07 1013.20 1013.36 1013.82 1015.45 1015.42 1016.34 1016.99 1017.04 1017.21 1017.04 1017.58 1017.51 1017.40 1017.60 1018.64 1019.38 1019.86 1020.30 1020.82 1021.33 1021.59 1022.00 1022.57 1022.97 1023.56 1024.38 1025.08 1025.83 1026.53 1027.04 1027.47 1027.91
1006.83 1007.15 1008.96 1009.55 1009.75 1010.06 1010.47 1011.61 1011.77 1011.34 1011.82 1012.63 1013.08 1013.72 1014.21 1015.42 1015.67 1016.21 1017.21 1017.07 1017.46 1017.07 1017.73 1017.57 1017.16 1018.11 1019.34 1020.11 1020.93 1021.53 1022.03 1022.50 1022.97 1023.38 1023.93 1024.49 1024.97 1025.43 1025.92 1026.48 1027.10 1027.74 1028.24 1028.82
1007.15 1007.68 1009.17 1009.75 1010.84 1010.81 1010.78 1011.43 1011.78 1011.78 1012.10 1012.70 1013.05 1013.99 1014.45 1015.55 1015.82 1016.71 1016.98 1017.09 1017.18 1017.47 1017.34 1016.82 1017.04 1018.53 1019.67 1020.59 1021.60 1022.31 1022.92 1023.45 1023.98 1024.53 1025.06 1025.60 1026.11 1026.58 1026.99 1027.54 1028.10 1028.59 1028.86 1029.29
1008.06 1009.02 1010.43 1010.97 1011.48 1011.52 1011.40 1011.08 1011.16 1012.03 1012.04 1012.37 1012.93 1013.85 1014.32 1015.49 1016.03 1016.65 1016.90 1017.69 1017.29 1017.11 1016.87 1016.74 1017.57 1018.72 1019.93 1021.13 1022.01 1022.74 1023.50 1024.48 1024.99 1025.43 1026.04 1026.63 1027.19 1027.83 1028.48 1028.85 1029.10 1029.18 1029.25 1029.63
1009.51 1010.15 1011.66 1012.41 1012.93 1012.77 1012.60 1012.49 1012.36 1012.35 1012.47 1012.58 1013.19 1014.02 1014.57 1015.63 1016.32 1016.73 1017.24 1017.63 1016.98 1016.69 1016.62 1017.28 1018.13 1019.21 1020.39 1021.51 1022.46 1023.22 1024.17 1025.20 1025.91 1026.48 1027.05 1027.62 1028.08 1028.48 1028.93 1029.31 1029.41 1029.52 1029.69 1029.76
1011.11 1012.08 1012.90 1013.35 1013.22 1013.43 1013.27 1013.19 1013.19 1013.44 1013.31 1013.03 1013.14 1014.06 1014.96 1015.79 1016.05 1016.40 1016.48 1016.55 1016.49 1016.90 1017.40 1018.21 1019.00 1020.07 1021.02 1022.05 1022.93 1023.88 1024.77 1025.51 1026.29 1026.95 1027.48 1028.01 1028.48 1028.78 1029.07 1029.51 1029.66 1029.78 1029.81 1029.82
1012.58 1013.57 1013.90 1013.70 1013.94 1014.25 1014.41 1014.24 1014.48 1014.36 1013.59 1013.74 1013.84 1014.34 1015.45 1016.00 1015.97 1016.24 1016.46 1016.73 1017.26 1017.90 1018.75 1019.27 1019.91 1020.80 1021.78 1022.72 1023.62 1024.53 1025.23 1025.95 1026.64 1027.25 1027.78 1028.22 1028.73 1029.10 1029.07 1029.12 1029.37 1029.54 1029.73 1029.89
Wind_Speed
20 18 16 15 29 30 8 5 3 3 7 6 5 10 8 5 9 3 2 4 6 13 15 11 9 10 5 9 10 7 4 4 6 4 1 4 4 4 4 4 5 6 7 13
21 20 20 16 37 29 7 5 5 4 6 7 12 7 9 5 8 10 5 4 3 5 10 8 9 10 7 10 9 11 9 5 6 8 7 5 9 9 7 5 2 11 10 8
20 20 22 19 38 27 8 6 7 2 3 8 14 16 16 11 1 5 3 5 5 10 9 4 12 10 8 6 6 2 6 6 8 3 6 5 8 9 9 8 8 11 11 17
24 23 22 33 39 24 6 4 5 10 12 10 14 16 18 15 6 2 4 2 6 9 7 9 8 12 12 7 10 7 6 6 6 5 5 8 10 12 13 14 14 13 16 17
27 26 25 38 37 21 4 8 7 6 9 18 17 19 20 22 16 17 11 6 11 8 7 7 16 16 11 8 10 9 5 4 2 5 5 4 6 8 8 9 11 15 15 16
32 30 30 40 35 21 4 3 5 7 15 18 16 19 16 20 15 3 6 12 13 7 7 6 11 8 8 9 12 8 7 5 6 3 6 4 7 9 6 4 5 6 10 9
32 34 34 44 35 25 4 7 8 5 9 17 18 23 18 17 13 8 9 14 11 8 17 17 14 13 11 9 6 7 8 6 3 3 6 6 7 6 1 4 7 4 7 8
37 39 37 43 36 17 4 5 4 6 8 15 20 23 16 17 10 12 18 5 10 17 15 12 9 6 6 6 4 6 3 4 4 4 4 3 6 4 2 3 2 2 6 8
43 41 41 40 28 17 7 2 2 4 9 13 22 19 20 17 15 11 7 12 13 5 3 4 8 7 8 8 8 2 5 5 5 4 3 4 9 4 1 2 5 3 4 7
40 43 42 33 24 16 10 4 6 5 5 10 19 17 19 12 13 9 9 9 7 2 3 4 5 5 7 9 9 7 7 4 7 4 4 1 5 3 4 6 5 2 3 4
44 41 36 28 20 17 8 4 4 4 6 7 6 7 10 12 10 12 16 9 4 4 6 4 3 4 5 4 7 7 8 7 4 3 5 5 7 5 5 5 3 3 2 3
40 37 32 22 14 8 6 5 3 5 8 7 9 12 9 2 6 14 11 3 10 5 4 2 3 3 4 7 6 4 5 1 1 3 3 7 3 2 4 2 3 1 1 2
35 33 29 21 15 9 5 9 10 8 8 10 7 8 9 10 7 2 7 3 5 5 3 4 2 4 4 5 4 5 5 5 1 2 3 5 6 4 4 4 3 2 1 2
31 25 18 16 13 14 8 7 2 6 7 8 7 3 6 10 5 5 5 12 7 7 3 3 3 2 4 3 3 4 2 9 5 3 5 3 4 6 6 4 4 3 2 3
25 21 19 19 20 20 12 8 5 4 5 7 7 13 13 8 11 16 14 13 10 5 3 2 2 2 4 3 1 4 7 7 5 1 8 2 6 6 5 7 4 2 2 1
23 22 21 23 19 7 8 6 7 6 8 8 6 3 8 12 14 16 13 7 5 3 3 3 3 3 2 3 3 3 6 5 4 3 7 8 10 8 6 6 4 3 3 4
25 22 18 16 14 8 6 4 5 2 4 6 6 5 3 4 5 4 6 7 4 3 3 1 2 4 3 2 3 5 6 7 6 10 12 9 9 6 6 5 5 4 4 5
28 26 24 23 23 13 7 8 6 2 6 5 6 5 6 2 4 4 3 3 2 3 2 2 2 4 1 3 3 4 8 8 8 6 4 9 11 9 7 5 5 3 4 4
18 15 11 8 8 4 3 6 4 5 4 6 3 8 6 4 4 2 3 1 3 1 2 2 3 3 3 3 2 7 9 5 10 9 9 9 8 7 6 4 3 2 4 5
12 9 7 5 3 4 2 1 2 5 4 4 4 4 7 6 4 3 3 1 2 3 3 3 3 1 5 5 3 6 7 10 10 9 6 6 6 6 4 4 5 4 3 4
5 5 4 4 3 1 4 4 4 2 4 3 4 8 10 3 4 4 2 3 2 3 4 3 3 3 4 6 9 9 9 8 7 8 7 5 6 6 6 5 3 3 3 4
6 10 6 2 3 3 5 3 1 2 4 4 8 9 5 4 2 4 2 3 2 3 4 3 3 5 6 8 9 9 9 10 10 9 9 8 7 5 5 4 3 4 4 3
3 4 5 1 3 4 3 5 3 5 5 6 7 6 4 4 3 4 2 3 3 6 3 2 3 7 7 8 8 8 8 9 10 9 9 8 8 6 5 5 5 2 3 3
5 4 6 4 3 4 3 3 5 4 9 11 9 4 3 2 3 2 3 3 3 4 4 2 4 7 9 9 8 9 9 8 6 7 7 7 7 7 6 4 2 2 3 3
5 5 6 5 2 2 4 5 7 9 9 8 7 5 3 3 4 1 4 4 4 4 3 3 5 8 10 10 10 9 9 8 6 6 6 6 6 5 5 4 3 4 2 2
5 6 6 1 5 7 6 8 8 3 3 3 4 4 4 3 4 3 3 6 4 4 3 4 6 8 9 10 9 8 8 8 7 6 6 6 4 4 4 3 3 3 3 1
4 4 4 4 6 5 4 4 3 2 1 3 2 4 3 4 3 4 2 2 4 5 4 4 6 9 10 9 9 9 9 8 7 6 6 5 5 4 3 2 4 2 3 1
Wind_Direction
226 227 215 206 164 146 124 128 116 186 166 150 202 198 196 169 164 220 165 154 113 170 161 173 165 183 186 166 156 170 171 214 187 183 108 259 244 179 182 253 165 242 290 290
223 214 212 211 160 159 116 100 115 272 267 186 186 172 187 210 168 184 190 149 148 164 160 144 151 140 128 157 177 171 171 190 175 164 160 174 208 194 188 184 250 253 277 284
209 213 207 199 169 160 111 125 129 146 241 278 186 175 194 170 75 167 148 110 120 139 145 126 158 137 149 155 181 146 188 205 268 274 74 123 186 202 225 242 266 279 261 285
207 210 204 175 176 153 109 141 169 160 183 215 191 185 177 172 160 252 165 142 223 167 142 142 157 141 140 160 155 175 219 230 225 257 257 249 249 248 238 240 249 267 292 306
202 200 205 174 175 150 88 135 164 163 173 175 184 193 180 178 178 166 189 229 179 172 167 178 171 159 166 167 174 171 180 186 193 248 194 202 239 230 229 243 261 266 281 295
208 198 199 179 174 163 125 151 187 106 160 174 183 187 182 191 154 139 209 158 147 165 123 127 136 154 138 148 156 167 183 186 205 200 200 265 227 196 208 268 284 281 276 342
202 197 194 180 175 179 111 174 126 123 171 185 187 173 179 166 176 152 147 164 146 111 118 106 95 90 102 125 119 164 172 195 216 208 222 220 100 112 318 245 263 250 281 312
202 192 185 177 174 169 153 133 140 153 156 184 182 171 167 159 156 137 145 121 126 153 132 119 117 128 141 134 172 183 230 207 198 225 231 94 169 189 273 313 144 221 289 322
179 180 171 168 158 155 131 125 15 194 131 191 168 165 160 148 130 124 111 100 134 166 136 162 165 180 168 175 163 164 189 259 251 193 244 242 96 126 174 174 208 127 319 328
163 157 155 149 145 154 120 130 230 122 104 143 164 174 165 159 145 119 131 147 158 275 150 158 168 154 174 171 171 182 186 212 222 190 258 210 138 98 168 243 72 347 357 358
143 143 141 140 140 135 181 109 30 98 95 99 149 136 147 141 155 156 148 139 179 158 176 178 158 171 176 151 154 178 186 181 182 180 220 225 169 169 243 63 111 87 41 7
135 134 132 130 135 130 104 105 125 94 78 89 78 78 48 349 119 127 175 75 147 143 146 198 132 165 160 173 183 193 202 262 169 244 50 124 115 84 108 127 136 118 336 347
127 127 129 141 141 159 155 121 128 89 109 91 76 43 30 50 74 66 133 134 126 143 32 135 103 162 193 176 190 150 177 154 164 246 172 195 166 158 177 180 177 176 75 4
120 125 140 138 149 119 102 114 75 99 100 94 67 28 45 1 51 74 82 115 103 114 152 104 121 133 255 168 88 224 136 170 175 249 203 165 187 181 183 167 146 149 87 27
139 140 137 123 113 103 94 84 37 27 115 122 108 73 35 54 92 95 109 117 124 137 108 100 104 111 173 95 199 180 198 180 189 270 152 127 135 167 194 168 154 100 2 347
131 127 129 125 127 152 110 71 39 33 113 107 91 87 57 69 80 81 77 77 66 67 83 96 110 70 283 198 227 109 182 172 174 133 135 107 131 124 120 129 107 74 36 21
116 116 113 106 95 69 59 96 100 44 109 98 105 113 55 14 65 66 72 61 66 49 104 75 102 129 231 210 245 118 162 148 135 125 127 127 159 129 115 108 102 107 67 34
103 101 98 97 103 109 67 30 40 23 90 81 109 100 136 342 117 101 360 93 90 34 81 129 146 141 222 255 130 129 133 127 127 129 68 84 113 122 110 110 127 106 58 27
95 89 86 63 40 60 84 359 14 50 57 105 109 141 138 140 87 93 114 358 101 60 109 122 215 141 209 37 173 166 163 169 132 116 113 123 125 121 120 120 102 83 47 27
61 47 46 57 45 336 255 193 65 37 37 57 87 131 120 140 147 106 132 95 118 145 87 137 229 158 75 16 17 123 135 129 137 136 134 147 141 138 129 106 84 65 46 34
48 63 72 87 304 153 36 69 44 83 84 72 91 134 131 147 129 121 350 121 142 156 123 231 159 195 97 94 84 92 99 97 84 88 88 85 114 132 134 124 108 84 52 35
90 100 105 105 43 68 79 47 91 55 101 125 138 129 100 112 134 112 154 105 193 125 140 197 195 103 129 126 118 106 98 95 98 101 104 97 95 95 100 105 99 73 47 35
78 69 71 341 5 84 128 144 117 129 146 153 148 126 106 134 94 86 134 143 106 135 190 200 58 123 146 136 130 121 116 116 113 109 104 102 93 76 67 80 58 33 73 25
56 54 67 22 60 62 50 70 106 91 132 137 124 93 83 103 80 120 112 75 167 170 187 166 138 152 152 146 144 145 135 122 117 115 111 107 105 97 80 68 59 47 63 67
62 39 59 56 67 61 91 107 116 118 120 127 119 88 86 79 110 72 124 156 176 209 173 101 124 140 151 151 155 143 136 128 126 122 118 118 120 119 99 77 64 71 71 60
61 49 96 113 108 96 99 111 99 69 116 118 68 100 93 88 120 158 167 165 181 142 112 111 137 143 152 150 147 140 137 139 137 134 138 131 134 127 103 121 80 47 32 54
54 62 24 33 65 68 75 76 60 323 51 64 103 88 75 129 133 139 187 159 90 119 117 116 128 148 146 141 135 134 139 139 134 129 137 134 127 136 156 115 90 52 91 90